Starlink 31166

operational
NORAD ID: 58789 Int'l Des: 2024-012 Owner: SPXS Country: US Constellation: starlink
LEOCIRCULAR

About Starlink 31166

Description loading...

Live Position

Loading 3D Globe...

Upcoming Passes

Altitude History

Altitude vs Time

uPlot chart will show altitude changes over time

Two-Line Element Set

1 58789U 24012C 25256.79300261 .00001819 00000-0 75576-4 0 9997
2 58789 43.0013 84.1083 0001510 250.6419 109.4270 15.27594843 94181
Epoch: Sep 13, 2025 • Age: 55 hours

Current Status

Altitude 487.1 km
Velocity 7.63 km/s
Sub-Earth Point 43.07°N, 126.18°E
Launch Date Jan 15, 2024
Age 1.6 years
Type internet

Technical Details

Classification Payload
Mass 730.00 kg
Dry Mass 700.00 kg
Total Mass 730.00 kg
Length 0.30 m
Diameter 4.10 m
Span 29.00 m
Shape Box + pan
Manufacturer SPXS
Bus Type Starlink V2M
Phase Status In Orbit
Owner/State SPXS/US

Large Constellations

Loading constellations...